Location: L'Union
(43.6635°N, 1.4699°E)
Time: 18:45:34
(UTC+02:00)

Envisat - Pass Details

Date: 05 August 2021
Orbit: 764 x 766 km, 98.2° (Epoch: 17 September)

Event Time Altitude Azimuth Distance (km) Brightness Sun altitude
Rises 05:55:38 0° 30° (NNE) 3,241 7.6 -9.0°
Reaches altitude 10° 05:58:52 10° 52° (NE) 2,308 7.2 -8.5°
Maximum altitude 06:01:58 16° 90° (E) 1,915 6.0 -8.1°
Drops below altitude 10° 06:05:02 10° 128° (SE) 2,297 5.8 -7.6°
Sets 06:08:13 0° 149° (SSE) 3,217 6.2 -7.1°
